Wind_Speed
10 9 8 9 9 8 8 8 8 8 8 8 8 8 8 8 8 8 8 8 8 7 8 7 7 7 7 6 5 5 4 3 3 3 3 4 4 5 6 6 6 7 8
8 7 7 8 8 8 7 7 8 8 8 7 7 8 8 8 8 9 9 9 9 9 8 8 8 8 8 7 6 5 5 4 4 4 4 5 5 4 5 6 6 7 8
7 7 7 8 7 7 8 8 8 8 8 8 8 8 8 8 9 9 9 10 10 10 10 9 9 8 8 7 6 5 5 5 5 5 5 4 4 5 5 5 6 6 6
7 7 8 7 7 7 7 7 8 8 8 8 8 8 9 9 9 9 9 10 10 10 10 10 9 9 8 8 8 7 7 7 6 6 6 5 5 6 6 6 6 7 7
8 8 9 7 7 7 7 7 8 9 9 8 8 9 10 10 10 10 10 10 10 10 10 10 10 10 10 9 9 9 9 8 8 8 7 7 7 8 9 8 8 9 9
8 8 9 8 8 7 8 8 8 9 9 9 9 10 10 11 11 11 11 11 11 11 11 10 10 10 10 10 10 10 10 10 10 9 9 8 8 9 10 10 10 11 11
9 8 9 8 8 8 8 9 9 9 9 10 10 10 11 11 12 12 13 13 13 12 12 11 11 11 11 11 11 11 11 11 10 10 10 9 9 10 10 11 12 12 12
8 9 8 8 9 9 10 9 9 10 10 11 11 11 12 12 13 13 13 13 13 13 13 13 12 12 12 12 12 12 11 11 11 11 11 11 11 11 11 12 12 12 13
9 9 8 8 8 9 10 10 10 11 12 12 12 12 13 13 14 14 14 14 14 14 13 13 13 13 13 13 13 13 13 13 13 12 12 12 13 13 13 14 14 14 14
10 9 10 10 10 10 11 11 11 12 13 13 13 13 14 14 15 15 15 15 15 15 15 14 14 14 15 15 14 14 14 14 13 13 14 14 14 14 15 15 15 15 16
12 11 11 11 10 11 11 12 12 12 13 13 14 14 15 15 15 16 15 15 16 16 16 16 16 17 16 16 15 15 15 15 14 15 15 16 16 16 16 17 17 17 17
13 13 12 12 12 12 13 13 13 13 13 14 15 15 15 16 16 16 16 16 17 17 18 18 18 18 17 17 17 16 16 16 16 17 17 17 17 18 17 18 18 18 18
13 13 13 13 13 14 13 13 14 14 15 15 16 16 16 17 17 17 18 18 18 18 18 18 19 19 19 18 18 18 18 18 18 18 18 18 19 19 19 19 19 20 20
14 15 15 15 15 13 13 14 15 15 15 16 17 17 18 18 18 19 20 20 20 20 20 19 19 19 19 19 19 20 19 19 19 19 20 20 20 20 20 20 20 21 21
15 15 16 15 15 15 15 15 16 16 16 17 18 18 19 19 20 21 21 21 21 21 21 20 20 20 20 20 20 20 20 20 21 21 22 22 21 21 21 21 22 22 22
17 17 17 17 18 18 18 17 17 17 18 18 19 19 20 21 21 22 22 22 22 23 22 22 21 20 21 21 21 20 20 21 22 22 23 22 21 22 22 23 24 24 24
19 19 19 19 20 20 19 19 19 20 20 21 21 22 22 23 23 23 23 23 23 23 23 22 22 22 21 21 21 21 21 22 22 23 23 23 23 23 24 25 25 26 25
20 20 20 21 21 21 22 21 21 21 22 22 23 24 24 25 25 25 24 24 24 23 23 23 22 22 22 22 22 22 22 22 23 23 23 23 24 24 25 26 26 27 27
24 23 23 23 23 23 24 23 23 24 25 25 25 25 26 26 26 26 26 25 25 25 25 24 23 23 23 22 22 22 23 23 24 24 24 24 25 25 26 27 27 27 27
27 26 26 25 25 25 26 26 27 27 27 26 26 27 27 27 27 27 27 27 26 26 26 25 25 24 24 23 23 24 24 25 25 25 25 25 26 27 27 28 28 28 27
29 28 28 28 28 28 28 28 28 28 28 27 27 27 27 28 28 28 28 28 28 27 27 25 26 26 25 24 24 24 25 25 26 26 26 27 27 27 28 28 29 28 28
30 30 30 29 29 30 30 29 29 29 29 28 28 28 29 29 29 29 29 30 29 28 28 27 27 27 26 25 25 26 26 26 27 27 27 27 28 28 28 29 29 29 29
31 31 31 31 30 31 30 30 29 29 28 28 29 29 30 30 30 31 31 31 30 29 29 29 29 28 28 27 27 27 27 27 27 27 27 28 28 28 28 27 27 27 27
32 32 32 32 32 32 31 30 29 29 29 29 30 30 30 30 30 31 31 31 31 31 31 31 30 30 29 29 28 27 28 27 27 27 28 28 28 28 27 27 26 26 26
33 32 32 32 33 32 32 31 30 29 30 30 31 31 30 31 31 31 31 31 31 31 31 31 30 29 29 29 29 29 29 29 29 28 28 28 28 28 28 27 26 27 27
32 32 32 32 32 31 31 31 30 30 29 29 29 30 30 30 31 31 31 31 31 31 31 31 30 30 29 29 29 29 29 29 29 28 28 27 27 27 27 26 26 26 27
Wind_Direction
15 21 24 20 20 19 16 21 18 17 18 18 18 16 10 6 5 5 6 5 359 354 351 352 349 345 341 342 348 347 338 317 291 279 271 264 264 264 248 241 238 233 235
5 12 13 13 11 12 11 10 6 6 7 8 7 5 2 359 358 356 356 356 355 351 343 342 342 341 338 330 326 333 332 321 323 313 290 273 262 244 246 252 252 243 241
7 10 9 8 3 2 358 356 355 353 354 354 354 355 355 351 348 346 342 341 343 343 342 341 336 332 332 333 331 326 323 323 316 313 303 283 262 259 263 265 266 261 254
360 4 4 2 357 353 352 348 347 344 343 343 344 344 346 345 341 338 336 335 336 334 336 337 332 328 324 321 324 321 316 315 310 302 298 284 283 283 280 274 266 263 261
351 348 350 353 347 344 348 345 340 337 336 338 338 337 337 338 336 332 331 331 330 327 328 329 329 328 322 315 315 318 311 307 303 298 293 285 284 281 277 272 266 264 264
340 336 339 341 347 339 335 335 334 336 334 333 332 331 332 333 331 329 328 327 323 320 322 326 326 324 322 319 315 313 312 309 305 300 295 288 284 279 274 271 268 264 265
328 322 323 330 332 331 327 327 330 329 327 328 326 326 326 327 328 325 323 320 318 315 318 321 319 317 316 314 313 312 309 306 304 299 297 294 290 286 278 275 274 267 265
314 321 316 321 322 325 327 326 326 326 324 322 320 320 320 321 321 320 318 315 314 313 314 315 313 311 312 310 308 308 304 301 296 292 289 288 286 284 282 282 281 276 273
318 315 312 314 313 321 323 322 323 321 320 318 315 314 315 318 318 317 314 313 311 309 309 310 310 309 308 307 305 304 300 296 291 286 283 282 280 278 276 277 277 276 275
315 316 315 314 309 312 315 315 316 317 317 316 315 311 313 314 314 316 313 312 311 308 306 305 306 305 305 307 304 300 298 294 289 285 282 278 278 278 276 276 273 273 274
312 309 306 306 302 303 306 310 312 314 314 314 312 312 311 312 311 311 311 309 310 310 306 304 304 304 303 304 302 299 296 291 288 286 282 279 278 278 276 275 274 274 275
313 309 301 300 299 300 304 309 312 314 313 312 311 311 310 310 310 310 310 309 308 307 304 301 300 300 300 300 299 297 294 291 289 288 286 284 281 279 276 274 274 273 273
313 308 300 301 299 298 300 303 307 310 310 311 311 312 312 311 310 310 310 308 306 304 304 300 297 296 296 296 294 293 292 291 291 291 290 287 283 279 276 274 273 273 274
308 307 305 300 299 300 301 302 300 303 307 308 309 311 312 313 312 311 309 307 304 302 301 298 297 297 296 293 291 290 290 290 289 290 290 289 284 280 278 278 276 275 275
301 302 302 299 297 296 297 299 297 299 303 303 305 307 309 310 310 309 308 307 306 304 303 300 297 296 295 295 294 292 291 290 289 289 288 287 283 280 279 278 277 276 276
295 295 299 300 296 295 295 296 297 299 300 299 301 303 304 306 307 307 305 305 303 303 301 299 298 296 295 294 294 293 290 290 290 291 290 287 284 281 279 278 277 277 276
287 291 295 296 299 295 289 291 297 299 299 299 300 302 304 305 305 306 305 305 303 302 301 298 298 297 295 294 292 291 291 291 290 290 291 288 283 280 280 279 279 279 278
287 289 290 294 294 293 291 293 294 295 296 296 298 300 301 302 303 303 303 303 302 302 301 299 297 296 295 295 293 292 292 292 292 291 290 288 285 282 281 280 279 279 278
287 289 290 291 291 291 292 294 294 292 294 294 296 298 299 300 301 301 301 302 302 302 299 298 297 295 294 294 295 295 294 293 292 291 290 288 287 285 283 282 281 279 279
288 288 289 290 291 290 290 290 293 292 293 294 294 295 297 299 299 300 300 300 300 300 298 296 294 293 291 291 293 293 293 293 292 291 289 288 288 286 285 284 282 280 278
284 286 286 287 288 289 288 291 292 292 294 294 294 294 295 295 297 298 298 297 297 297 297 295 293 291 291 291 292 293 293 292 291 290 288 287 286 285 285 284 282 280 278
282 284 285 287 288 289 290 291 291 291 292 293 292 293 292 292 293 295 296 297 295 295 294 292 292 291 293 293 295 295 295 293 291 291 289 288 287 286 287 286 283 280 277
279 281 284 286 288 289 290 290 289 289 289 290 291 292 292 291 292 294 295 295 296 295 296 295 293 291 293 295 295 295 295 294 292 291 290 289 288 287 288 286 284 280 277
279 281 284 286 288 289 290 289 288 288 289 291 293 293 292 292 293 294 294 294 294 295 295 295 294 293 292 293 293 294 294 295 295 292 290 290 289 289 288 286 284 281 278
279 281 284 286 287 288 289 290 287 287 289 290 291 291 291 293 294 294 295 295 295 296 296 295 295 293 293 293 293 294 294 294 294 293 292 290 289 288 286 285 284 282 278
279 281 283 284 285 286 288 287 288 288 288 289 290 291 291 292 293 294 294 295 296 296 297 297 296 295 295 294 293 294 295 294 293 292 293 292 290 288 285 283 283 281 278
Height
5902 5900 5899 5898 5897 5896 5894 5893 5892 5890 5889 5888 5887 5885 5884 5883 5881 5879 5877 5876 5874 5872 5871 5869 5868 5866 5865 5863 5862 5860 5859 5858 5857 5856 5855 5855 5855 5855 5855 5855 5855 5855 5856
5902 5900 5899 5898 5897 5896 5895 5894 5892 5891 5889 5888 5887 5885 5884 5882 5881 5879 5877 5875 5874 5872 5870 5868 5867 5865 5864 5862 5861 5860 5859 5858 5856 5856 5855 5854 5855 5854 5853 5854 5854 5854 5854
5901 5900 5899 5898 5897 5896 5895 5894 5892 5890 5889 5888 5886 5885 5883 5882 5880 5879 5877 5875 5873 5871 5870 5867 5866 5864 5862 5861 5860 5859 5858 5857 5856 5855 5854 5853 5853 5853 5853 5853 5853 5853 5853
5901 5900 5899 5897 5896 5895 5894 5893 5891 5890 5888 5887 5885 5884 5883 5881 5879 5877 5876 5874 5872 5870 5868 5867 5865 5863 5861 5860 5858 5857 5856 5855 5854 5853 5853 5853 5852 5852 5851 5852 5852 5852 5852
5900 5899 5897 5896 5895 5894 5893 5892 5890 5889 5887 5886 5884 5883 5881 5880 5878 5876 5874 5872 5871 5869 5867 5865 5863 5861 5859 5858 5857 5855 5854 5854 5853 5852 5851 5851 5850 5850 5850 5850 5850 5850 5849
5898 5897 5896 5894 5894 5893 5892 5891 5889 5888 5886 5884 5883 5881 5880 5878 5876 5874 5872 5870 5868 5867 5865 5863 5861 5859 5857 5856 5854 5853 5852 5851 5850 5849 5848 5848 5848 5847 5847 5847 5847 5847 5847
5896 5895 5894 5893 5892 5892 5890 5889 5887 5886 5883 5882 5881 5880 5878 5876 5874 5872 5870 5868 5866 5864 5862 5860 5859 5857 5855 5854 5852 5851 5849 5848 5847 5846 5846 5845 5845 5844 5844 5844 5844 5843 5843
5895 5893 5892 5891 5891 5890 5888 5887 5885 5884 5882 5881 5879 5877 5876 5874 5872 5870 5867 5865 5863 5861 5859 5857 5856 5854 5852 5850 5849 5848 5846 5845 5844 5843 5843 5842 5842 5841 5841 5840 5840 5840 5839
5891 5891 5890 5889 5888 5887 5886 5885 5883 5882 5880 5878 5876 5875 5873 5871 5869 5867 5864 5862 5860 5858 5856 5854 5852 5851 5849 5847 5846 5844 5843 5842 5841 5840 5839 5839 5838 5838 5837 5837 5837 5836 5836
5889 5888 5887 5886 5885 5884 5883 5882 5881 5879 5878 5876 5874 5872 5870 5868 5866 5864 5861 5859 5857 5855 5852 5851 5849 5847 5845 5844 5842 5841 5840 5838 5837 5837 5836 5835 5834 5834 5833 5832 5832 5832 5831
5886 5885 5884 5883 5882 5881 5881 5879 5878 5876 5875 5873 5871 5869 5866 5864 5862 5860 5858 5856 5854 5851 5849 5847 5845 5843 5842 5840 5838 5837 5836 5834 5833 5832 5831 5830 5829 5829 5828 5827 5827 5826 5826
5882 5881 5881 5880 5879 5878 5877 5876 5875 5873 5872 5870 5868 5865 5863 5861 5859 5857 5854 5852 5850 5847 5845 5843 5841 5839 5837 5836 5834 5832 5831 5830 5828 5827 5826 5825 5824 5823 5822 5822 5821 5821 5820
5879 5878 5878 5877 5876 5875 5874 5873 5872 5870 5868 5866 5864 5862 5859 5857 5855 5852 5850 5847 5845 5843 5840 5838 5836 5834 5832 5830 5828 5827 5826 5824 5823 5822 5821 5819 5818 5817 5816 5816 5815 5814 5814
5876 5875 5875 5873 5872 5871 5870 5869 5868 5866 5864 5862 5860 5858 5855 5853 5850 5848 5845 5843 5840 5838 5836 5833 5831 5829 5827 5825 5823 5821 5820 5818 5817 5816 5815 5813 5812 5811 5810 5809 5809 5808 5807
5874 5872 5871 5870 5869 5867 5866 5864 5863 5862 5860 5858 5856 5854 5851 5849 5846 5843 5840 5838 5835 5832 5830 5827 5825 5823 5821 5819 5817 5815 5813 5812 5811 5810 5808 5807 5806 5805 5804 5803 5802 5801 5800
5869 5868 5867 5866 5865 5863 5861 5859 5858 5856 5855 5853 5851 5849 5846 5844 5842 5839 5836 5833 5830 5827 5824 5822 5819 5817 5814 5812 5811 5809 5807 5806 5804 5803 5801 5800 5799 5798 5797 5796 5795 5794 5793
5865 5864 5863 5861 5860 5858 5856 5855 5853 5852 5850 5848 5846 5843 5841 5839 5836 5833 5830 5827 5824 5821 5818 5815 5813 5810 5808 5806 5804 5802 5801 5799 5797 5796 5794 5793 5792 5791 5790 5788 5787 5786 5785
5859 5858 5857 5856 5854 5852 5851 5849 5848 5846 5845 5842 5840 5838 5835 5833 5830 5827 5824 5821 5818 5815 5812 5809 5807 5804 5801 5799 5797 5795 5794 5792 5790 5789 5787 5786 5784 5783 5782 5781 5779 5778 5777
5853 5853 5851 5849 5847 5846 5845 5843 5841 5840 5838 5836 5834 5831 5829 5826 5824 5821 5818 5815 5812 5809 5806 5803 5800 5798 5795 5793 5791 5789 5787 5785 5783 5781 5780 5778 5777 5775 5774 5772 5771 5770 5769
5847 5846 5844 5842 5841 5840 5838 5836 5835 5833 5831 5828 5826 5824 5822 5819 5817 5814 5811 5808 5805 5802 5798 5795 5793 5790 5788 5786 5784 5782 5780 5778 5776 5774 5772 5770 5769 5767 5765 5763 5762 5761 5760
5840 5839 5837 5835 5834 5833 5831 5828 5827 5825 5823 5821 5819 5816 5814 5812 5809 5806 5804 5801 5797 5794 5791 5788 5786 5783 5781 5779 5777 5774 5772 5770 5768 5766 5764 5762 5760 5758 5756 5755 5753 5752 5751
5832 5831 5829 5828 5826 5824 5822 5820 5818 5817 5815 5813 5811 5808 5806 5804 5801 5799 5796 5793 5789 5787 5783 5780 5778 5776 5774 5772 5769 5767 5765 5762 5760 5758 5755 5754 5752 5750 5748 5746 5744 5742 5741
5824 5823 5821 5820 5818 5816 5814 5812 5810 5808 5806 5804 5802 5799 5797 5795 5792 5790 5788 5785 5782 5779 5776 5773 5771 5769 5766 5764 5762 5759 5757 5754 5751 5749 5747 5745 5743 5741 5739 5737 5735 5733 5732
5816 5814 5813 5811 5809 5808 5805 5803 5801 5800 5797 5795 5793 5791 5789 5786 5784 5781 5779 5777 5774 5771 5768 5766 5763 5761 5758 5756 5753 5751 5748 5745 5743 5741 5739 5737 5735 5732 5730 5728 5726 5725 5723
5807 5806 5804 5802 5801 5799 5797 5794 5792 5791 5789 5787 5785 5783 5780 5778 5775 5773 5771 5768 5765 5762 5760 5757 5754 5752 5750 5747 5745 5743 5740 5738 5735 5733 5730 5728 5726 5724 5722 5720 5718 5716 5715
5798 5797 5795 5793 5791 5790 5788 5785 5784 5782 5780 5778 5776 5774 5772 5770 5767 5765 5762 5759 5756 5754 5751 5748 5745 5742 5740 5738 5736 5734 5731 5729 5726 5724 5722 5719 5717 5715 5713 5711 5709 5708 5706